Location: Dal�� Lhota
(48.7500°N, 14.0167°E)
Time: 20:43:21
(UTC+00:00)

Transit 2A - Pass Details

Date: 28 July 2021
Orbit: 594 x 964 km, 66.7° (Epoch: 27 September)

Event Time Altitude Azimuth Distance (km) Brightness Sun altitude
Rises 14:28:28 0° 324° (NW) 3,182 9.4 40.4°
Reaches altitude 10° 14:30:44 10° 326° (NW) 2,311 8.8 40.0°
Maximum altitude 14:36:05 82° 54° (NE) 840 6.8 39.2°
Drops below altitude 10° 14:42:00 10° 143° (SE) 2,545 8.6 38.3°
Sets 14:44:36 0° 144° (SE) 3,528 9.3 37.9°
